Tracking 29892 objects as of 21-Nov-2024
HD Live streaming from Space Station
objects crossing your sky now

COSMOS 1275 DEB

Track COSMOS 1275 DEB now!
10-day predictions


NORAD ID: 12663
Int'l Code: 1981-053T
Perigee: 908.5 km
Apogee: 985.6 km
Inclination: 83.0 °
Period: 103.8 minutes
Semi major axis: 7318 km
RCS: 0.0867 m2 (small)
Launch date: June 4, 1981
Source: Commonwealth of Independent States (former USSR) (CIS)
Launch site: PLESETSK MISSILE AND SPACE COMPLEX (PKMTR)

Note: This is SATELLITE DEBRIS
Your satellite tracking list
Your tracking list is empty




NASA's NSSDC Master Catalog

Two Line Element Set (TLE):
1 12663U 81053T   24325.20863215  .00001333  00000-0  11186-2 0  9997
2 12663  82.9538 234.2155 0052703   1.1009 150.8159 13.86787353179619
Source of the keplerian elements: AFSPC